Total_Precipitation_Accumulation
1.17 1.22 1.28 1.26 1.31 1.43 1.55 1.58 1.56 1.51 1.51 1.50 1.25 1.09 0.99 1.00 1.09 1.14 1.25 1.03 0.67 0.50 0.44 0.43 0.46 0.50 0.54 0.64 0.75 0.86 0.98 1.07 1.16 1.27 1.42 1.53 1.61 1.73
1.30 1.39 1.39 1.33 1.38 1.45 1.50 1.61 1.71 1.72 1.62 1.48 1.30 1.18 1.10 0.95 0.97 0.94 1.00 0.87 0.63 0.52 0.45 0.41 0.39 0.39 0.42 0.48 0.54 0.62 0.71 0.88 1.02 1.12 1.22 1.31 1.41 1.50
1.20 1.22 1.21 1.24 1.29 1.25 1.33 1.46 1.62 1.75 1.62 1.53 1.45 1.40 1.32 1.22 1.09 0.89 0.76 0.67 0.60 0.56 0.48 0.43 0.41 0.40 0.39 0.38 0.42 0.48 0.55 0.70 0.85 0.93 1.04 1.18 1.29 1.38
1.21 1.13 1.06 1.12 1.21 1.22 1.32 1.35 1.41 1.61 1.61 1.60 1.59 1.61 1.50 1.32 1.22 1.08 0.89 0.76 0.73 0.66 0.55 0.47 0.41 0.40 0.38 0.36 0.40 0.43 0.51 0.58 0.70 0.80 0.85 0.88 1.00 1.18
1.15 1.09 1.01 1.01 1.05 1.14 1.24 1.30 1.30 1.37 1.50 1.54 1.58 1.65 1.63 1.43 1.24 1.13 1.03 1.04 0.96 0.78 0.60 0.50 0.44 0.40 0.39 0.36 0.40 0.47 0.59 0.61 0.61 0.68 0.76 0.82 0.85 0.91
0.90 0.85 0.89 1.00 1.05 1.04 1.02 1.07 1.12 1.22 1.31 1.38 1.48 1.60 1.65 1.58 1.35 1.23 1.22 1.17 1.10 0.84 0.69 0.57 0.48 0.40 0.36 0.32 0.32 0.42 0.55 0.62 0.67 0.69 0.72 0.78 0.83 0.87
0.71 0.57 0.58 0.75 0.88 0.91 0.85 0.89 0.93 1.01 1.07 1.17 1.29 1.44 1.54 1.61 1.42 1.24 1.21 1.28 1.25 1.12 0.96 0.77 0.62 0.53 0.50 0.46 0.39 0.37 0.39 0.47 0.58 0.71 0.84 0.95 1.02 1.03
0.55 0.51 0.50 0.52 0.55 0.57 0.61 0.66 0.72 0.80 0.92 1.08 1.21 1.30 1.33 1.41 1.49 1.46 1.41 1.37 1.39 1.36 1.34 1.26 0.98 0.88 0.84 0.79 0.61 0.39 0.29 0.34 0.45 0.56 0.79 1.03 1.26 1.36
0.45 0.49 0.40 0.36 0.39 0.39 0.40 0.38 0.41 0.47 0.60 0.81 1.03 1.13 1.25 1.26 1.45 1.51 1.52 1.62 1.66 1.65 1.59 1.66 1.38 1.11 0.96 0.87 0.74 0.51 0.36 0.30 0.37 0.47 0.55 0.74 1.01 1.32
0.41 0.43 0.43 0.45 0.45 0.45 0.43 0.42 0.38 0.36 0.38 0.45 0.67 0.92 1.12 1.33 1.38 1.47 1.53 1.61 1.66 1.56 1.48 1.58 1.52 1.38 1.16 0.87 0.74 0.62 0.49 0.41 0.39 0.46 0.46 0.48 0.58 0.79
0.45 0.45 0.45 0.47 0.45 0.34 0.38 0.41 0.42 0.43 0.35 0.35 0.45 0.68 0.88 0.99 1.19 1.38 1.50 1.42 1.39 1.23 1.04 1.10 1.23 1.29 1.33 1.17 0.87 0.77 0.62 0.47 0.44 0.45 0.44 0.44 0.46 0.49
0.62 0.59 0.47 0.41 0.36 0.26 0.32 0.42 0.42 0.42 0.45 0.41 0.36 0.44 0.59 0.74 0.80 0.92 1.11 1.20 1.11 1.08 0.90 0.76 0.75 0.84 0.98 0.98 0.84 0.78 0.79 0.67 0.49 0.43 0.44 0.47 0.51 0.48
0.74 0.72 0.64 0.44 0.32 0.27 0.28 0.37 0.40 0.43 0.54 0.58 0.56 0.56 0.67 0.79 0.76 0.74 0.82 0.93 0.95 0.83 0.75 0.73 0.71 0.59 0.56 0.64 0.69 0.63 0.67 0.76 0.73 0.59 0.48 0.48 0.56 0.63
0.89 0.86 0.78 0.54 0.39 0.33 0.32 0.32 0.29 0.31 0.43 0.55 0.59 0.57 0.61 0.71 0.78 0.74 0.75 0.78 0.83 0.77 0.70 0.69 0.73 0.67 0.52 0.44 0.45 0.44 0.45 0.52 0.65 0.83 0.87 0.84 0.72 0.69
0.98 0.99 0.82 0.63 0.53 0.42 0.39 0.40 0.36 0.35 0.45 0.50 0.51 0.52 0.53 0.62 0.78 0.87 0.89 0.86 0.84 0.75 0.64 0.57 0.60 0.67 0.59 0.46 0.38 0.34 0.34 0.43 0.55 0.73 0.82 0.89 0.96 0.95
0.94 1.00 0.88 0.74 0.65 0.57 0.51 0.49 0.47 0.47 0.53 0.54 0.55 0.59 0.61 0.67 0.74 0.80 0.86 0.86 0.82 0.71 0.60 0.54 0.51 0.55 0.59 0.51 0.42 0.39 0.38 0.46 0.55 0.70 0.85 0.91 0.92 1.00
0.98 1.04 1.06 0.95 0.84 0.74 0.70 0.71 0.70 0.65 0.59 0.63 0.67 0.68 0.67 0.67 0.71 0.73 0.75 0.77 0.72 0.62 0.51 0.51 0.52 0.54 0.51 0.46 0.43 0.39 0.36 0.36 0.39 0.48 0.64 0.78 0.90 0.98
0.94 0.99 1.08 1.07 0.99 0.90 0.84 0.85 0.83 0.78 0.72 0.72 0.72 0.71 0.69 0.66 0.68 0.70 0.70 0.69 0.67 0.61 0.51 0.43 0.43 0.48 0.52 0.49 0.39 0.31 0.27 0.25 0.26 0.32 0.42 0.48 0.55 0.65
0.85 0.91 0.99 1.03 1.00 0.97 0.91 0.89 0.86 0.85 0.83 0.79 0.75 0.74 0.72 0.67 0.64 0.65 0.64 0.65 0.66 0.64 0.58 0.48 0.38 0.31 0.34 0.36 0.33 0.27 0.24 0.18 0.18 0.22 0.30 0.33 0.36 0.44
0.79 0.85 0.89 0.92 0.92 0.93 0.92 0.92 0.89 0.89 0.84 0.81 0.75 0.73 0.71 0.65 0.64 0.63 0.58 0.55 0.58 0.60 0.61 0.51 0.41 0.31 0.23 0.25 0.29 0.27 0.24 0.22 0.16 0.15 0.16 0.18 0.21 0.22
0.76 0.79 0.80 0.80 0.84 0.86 0.86 0.88 0.87 0.82 0.77 0.76 0.73 0.67 0.65 0.61 0.60 0.59 0.58 0.56 0.55 0.55 0.52 0.44 0.36 0.39 0.37 0.33 0.33 0.36 0.33 0.27 0.23 0.16 0.14 0.13 0.15 0.18
0.70 0.72 0.68 0.67 0.71 0.76 0.79 0.82 0.79 0.77 0.75 0.69 0.66 0.62 0.57 0.54 0.52 0.52 0.51 0.49 0.47 0.49 0.49 0.52 0.48 0.41 0.41 0.36 0.30 0.30 0.34 0.33 0.29 0.24 0.17 0.13 0.12 0.11
0.64 0.58 0.54 0.56 0.60 0.62 0.64 0.65 0.67 0.69 0.66 0.62 0.63 0.59 0.52 0.51 0.50 0.50 0.47 0.44 0.45 0.50 0.56 0.59 0.55 0.44 0.40 0.41 0.37 0.31 0.31 0.32 0.32 0.29 0.23 0.15 0.09 0.06